Location: Brodeslavy
(49.9527°N, 13.5567°E)
Time: 17:30:40
(UTC+00:00)

Cosmos 1515 Rocket - Pass Details

Date: 17 June 2025
Orbit: 599 x 624 km, 82.5° (Epoch: 12 July)

Event Time Altitude Azimuth Distance (km) Brightness Sun altitude
Exits shadow 20:41:11 - 198° (SSW) 2,881 6.6 -9.9°
Reaches altitude 10° 20:43:24 10° 201° (SSW) 1,992 5.8 -10.0°
Maximum altitude 20:47:46 61° 282° (WNW) 711 4.1 -10.4°
Drops below altitude 10° 20:52:12 10° 4° (N) 2,008 7.1 -10.8°
Sets 20:54:28 0° 8° (N) 2,919 7.9 -11.0°
